Penn Yan, NY

7:01 PM EDT on June 24, 2017 (GMT -0400)
Penn Yan

Weather History for KPEO - March, 2014

Change the Weather History Date:

Sunday, March 23, 2014

  Actual Average (KITH) Record (KITH)
Temperature  
Mean Temperature 25 °F -  
Max Temperature 33 °F 42 °F 77 °F (1938)
Min Temperature 17 °F 25 °F 3 °F (2017)
Degree Days  
Heating Degree Days 40    
Moisture  
Dew Point 14 °F    
Average Humidity 69    
Maximum Humidity 85    
Minimum Humidity 53    
Precipitation  
Precipitation 0.00 in - - ()
Sea Level Pressure  
Sea Level Pressure 30.16 in    
Wind  
Wind Speed 11 mph (NW)    
Max Wind Speed 18 mph    
Max Gust Speed 26 mph    
Visibility 5 miles    
Events Fog , Snow    
Averages and records for this station are not official NWS values.
T = Trace of Precipitation, MM = Missing Value Source: NWS Daily Summary

Daily Weather History Graph

Daily Weather History Graph

Search for Another Location

Airport or City:

Trip Planner

Search our weather history database for the weather conditions in past years. The results will help you decide how hot, cold, wet, or windy it might be!

Date:

Astronomy

Mar. 23, 2014 Rise Set
Actual Time 7:06 AM EDT 7:23 PM EDT
Civil Twilight 6:38 AM EDT 7:52 PM EDT
Nautical Twilight 6:04 AM EDT 8:25 PM EDT
Astronomical Twilight 5:31 AM EDT 8:59 PM EDT
Moon 1:45 AM EDT (3/23) 11:38 AM EDT (3/23)
Length of Visible Light 13h 14m
Length of Day
12h 17m
Waning Gibbous, 55% of the Moon is Illuminated
Mar 23
Waning Gibbous
Mar 23
Last Quarter
Mar 30
New
Apr 7
First Quarter
Apr 15
Full

Hourly Weather History & Observations

Time (EDT) Temp. Windchill Dew Point Humidity Pressure Visibility Wind Dir Wind Speed Gust Speed Precip Events Conditions
12:53 AM 33.1 °F 25.5 °F 23.0 °F 66% 30.06 in 10.0 mi WSW 9.2 mph - N/A   Mostly Cloudy
1:53 AM 33.1 °F 24.4 °F 23.0 °F 66% 30.05 in 10.0 mi WNW 11.5 mph 20.7 mph N/A   Mostly Cloudy
2:00 AM 30.9 °F 21.7 °F 24.1 °F 76% 30.03 in 4.0 mi NW 11.5 mph 26.5 mph 0.00 in Snow Light Snow
2:20 AM 30.0 °F 19.1 °F 21.9 °F 72% 30.03 in 9.0 mi WNW 15.0 mph 24.2 mph 0.00 in   Mostly Cloudy
2:53 AM 30.0 °F 20.5 °F 21.0 °F 69% 30.07 in 10.0 mi WNW 11.5 mph 20.7 mph 0.00 in   Overcast
3:53 AM 28.0 °F 16.5 °F 16.0 °F 61% 30.09 in 10.0 mi NW 15.0 mph 25.3 mph N/A   Overcast
4:53 AM 25.0 °F 14.8 °F 10.0 °F 53% 30.11 in 10.0 mi NW 10.4 mph - N/A   Scattered Clouds
5:53 AM 23.0 °F 10.1 °F 12.0 °F 63% 30.14 in 10.0 mi NW 15.0 mph 20.7 mph N/A   Mostly Cloudy
6:13 AM 23.0 °F 11.1 °F 10.9 °F 60% 30.11 in 10.0 mi West 12.7 mph 23.0 mph 0.00 in Snow Light Snow
6:53 AM 21.9 °F 11.7 °F 14.0 °F 72% 30.16 in 7.0 mi WNW 9.2 mph - 0.00 in Snow Light Snow
7:01 AM 21.9 °F 11.7 °F 14.0 °F 72% 30.13 in 8.0 mi WNW 9.2 mph - 0.00 in Snow Light Snow
7:12 AM 21.9 °F 11.7 °F 14.0 °F 72% 30.13 in 9.0 mi WNW 9.2 mph - 0.00 in   Overcast
7:20 AM 21.9 °F 13.4 °F 14.0 °F 72% 30.13 in 7.0 mi WNW 6.9 mph - 0.00 in   Overcast
7:53 AM 21.9 °F 11.0 °F 14.0 °F 72% 30.18 in 9.0 mi WNW 10.4 mph - 0.00 in   Overcast
8:04 AM 21.9 °F 11.0 °F 15.1 °F 75% 30.14 in 2.5 mi WNW 10.4 mph 16.1 mph 0.00 in Snow Light Snow
8:08 AM 21.9 °F 12.5 °F 15.1 °F 75% 30.14 in 1.8 mi NW 8.1 mph 16.1 mph 0.00 in Snow Light Snow
8:31 AM 21.0 °F 12.4 °F 17.1 °F 85% 30.14 in 0.5 mi Variable 6.9 mph - 0.00 in Fog , Snow Snow
8:45 AM 21.9 °F 10.4 °F 16.0 °F 78% 30.15 in 1.0 mi WNW 11.5 mph 18.4 mph 0.00 in Snow Light Snow
8:53 AM 21.0 °F 8.6 °F 15.1 °F 78% 30.19 in 1.0 mi NW 12.7 mph - 0.00 in Snow Light Snow
9:06 AM 21.0 °F 9.3 °F 15.1 °F 78% 30.16 in 0.8 mi NW 11.5 mph - 0.00 in Snow Light Snow
9:20 AM 21.0 °F 9.9 °F 16.0 °F 81% 30.16 in 1.0 mi NW 10.4 mph - 0.00 in Snow Light Snow
9:27 AM 21.0 °F 9.3 °F 14.0 °F 74% 30.16 in 2.5 mi NNW 11.5 mph - 0.00 in Snow Light Snow
9:35 AM 21.9 °F 9.8 °F 12.9 °F 68% 30.16 in 9.0 mi NW 12.7 mph 19.6 mph 0.00 in   Overcast
9:45 AM 23.0 °F 13.1 °F 12.9 °F 65% 30.16 in 10.0 mi NNW 9.2 mph - 0.00 in   Overcast
9:53 AM 23.0 °F 10.6 °F 14.0 °F 68% 30.20 in 9.0 mi NNW 13.8 mph 18.4 mph 0.00 in Snow Light Snow
10:08 AM 21.9 °F 10.4 °F 14.0 °F 72% 30.16 in 2.0 mi NNW 11.5 mph 19.6 mph 0.00 in Snow Light Snow
10:15 AM 21.9 °F 11.0 °F 14.0 °F 72% 30.16 in 3.0 mi NNW 10.4 mph 18.4 mph 0.00 in Snow Light Snow
10:53 AM 21.9 °F 11.7 °F 12.9 °F 68% 30.19 in 7.0 mi NW 9.2 mph - 0.00 in Snow Light Snow
11:23 AM 23.0 °F 13.1 °F 12.0 °F 63% 30.15 in 9.0 mi NW 9.2 mph - 0.00 in   Overcast
11:53 AM 23.0 °F 13.1 °F 15.1 °F 72% 30.20 in 4.0 mi NNW 9.2 mph - 0.00 in Snow Light Snow
12:06 PM 24.1 °F 12.5 °F 14.0 °F 65% 30.16 in 4.0 mi WNW 12.7 mph 19.6 mph 0.00 in Snow Light Snow
12:08 PM 23.0 °F 9.6 °F 14.0 °F 68% 30.16 in 1.5 mi NW 16.1 mph - 0.00 in Snow Light Snow
12:17 PM 21.9 °F 12.5 °F 15.1 °F 75% 30.16 in 0.8 mi NW 8.1 mph - 0.00 in Snow Light Snow
12:20 PM 21.9 °F 11.0 °F 15.1 °F 75% 30.16 in 2.0 mi WNW 10.4 mph - 0.00 in Snow Light Snow
12:26 PM 23.0 °F 11.1 °F 12.9 °F 65% 30.16 in 4.0 mi NW 12.7 mph 18.4 mph 0.00 in Snow Light Snow
12:30 PM 23.0 °F 10.6 °F 15.1 °F 72% 30.16 in 2.0 mi NNW 13.8 mph 19.6 mph 0.00 in Snow Light Snow
12:37 PM 21.9 °F 11.7 °F 15.1 °F 75% 30.16 in 1.2 mi NNW 9.2 mph 19.6 mph 0.00 in Snow Light Snow
12:41 PM 24.1 °F 16.0 °F 17.1 °F 75% 30.16 in 2.5 mi NNW 6.9 mph - 0.00 in Snow Light Snow
12:48 PM 23.0 °F 10.1 °F 15.8 °F 74% 30.16 in 4.0 mi NW 15.0 mph 18.4 mph 0.00 in Snow Light Snow
12:51 PM 23.0 °F 10.1 °F 15.8 °F 74% 30.16 in 2.5 mi NW 15.0 mph - 0.00 in Snow Light Snow
12:53 PM 21.9 °F 10.4 °F 15.1 °F 75% 30.20 in 2.5 mi NW 11.5 mph - 0.00 in Snow Light Snow
1:01 PM 23.0 °F 12.4 °F 14.0 °F 68% 30.16 in 4.0 mi WNW 10.4 mph - 0.00 in Snow Light Snow
1:15 PM 23.0 °F 10.6 °F 15.1 °F 72% 30.16 in 2.0 mi NW 13.8 mph 20.7 mph 0.00 in Snow Light Snow
1:22 PM 21.9 °F 11.0 °F 14.0 °F 72% 30.16 in 1.2 mi NW 10.4 mph - 0.00 in Snow Light Snow
1:35 PM 23.0 °F 12.4 °F 15.1 °F 72% 30.15 in 2.5 mi NW 10.4 mph - 0.00 in Snow Light Snow
1:42 PM 23.0 °F 12.4 °F 15.1 °F 72% 30.15 in 6.0 mi NNW 10.4 mph - 0.00 in Snow Light Snow
1:50 PM 23.0 °F 9.6 °F 14.0 °F 68% 30.16 in 1.8 mi NW 16.1 mph 23.0 mph 0.00 in Snow Light Snow
1:51 PM 21.2 °F 7.8 °F 15.8 °F 80% 30.15 in 1.0 mi NW 15.0 mph 23.0 mph 0.00 in Snow Light Snow
1:53 PM 21.0 °F 8.6 °F 15.1 °F 78% 30.20 in 0.8 mi NNW 12.7 mph 23.0 mph 0.00 in Snow Light Snow
2:03 PM 21.9 °F 11.0 °F 14.0 °F 72% 30.15 in 2.5 mi NW 10.4 mph 20.7 mph 0.00 in Snow Light Snow
2:07 PM 21.9 °F 11.7 °F 14.0 °F 72% 30.15 in 6.0 mi NW 9.2 mph - 0.00 in Snow Light Snow
2:51 PM 23.0 °F 8.7 °F 14.0 °F 68% 30.14 in 2.0 mi NW 18.4 mph 24.2 mph 0.00 in Snow Light Snow
2:53 PM 21.9 °F 8.2 °F 14.0 °F 72% 30.19 in 1.8 mi NW 16.1 mph 24.2 mph 0.00 in Snow Light Snow
3:01 PM 21.9 °F 9.8 °F 12.9 °F 68% 30.14 in 2.5 mi NW 12.7 mph 19.6 mph 0.00 in Snow Light Snow
3:04 PM 23.0 °F 12.4 °F 12.9 °F 65% 30.14 in 5.0 mi NW 10.4 mph 19.6 mph 0.00 in Snow Light Snow
3:12 PM 23.0 °F 10.1 °F 14.0 °F 68% 30.14 in 7.0 mi NW 15.0 mph 20.7 mph 0.00 in   Overcast
3:29 PM 23.0 °F 10.1 °F 12.0 °F 63% 30.14 in 9.0 mi NW 15.0 mph 23.0 mph 0.00 in   Overcast
3:53 PM 24.1 °F 13.1 °F 12.9 °F 62% 30.18 in 9.0 mi NNW 11.5 mph - 0.00 in   Overcast
4:53 PM 21.9 °F 11.0 °F 12.0 °F 66% 30.19 in 5.0 mi NNW 10.4 mph 25.3 mph 0.00 in Snow Light Snow
5:53 PM 21.9 °F 10.4 °F 9.0 °F 58% 30.20 in 10.0 mi NNW 11.5 mph - 0.00 in   Overcast
6:53 PM 21.0 °F 8.6 °F 6.1 °F 53% 30.21 in 10.0 mi NW 12.7 mph 19.6 mph 0.00 in   Overcast
7:53 PM 19.0 °F 6.8 °F 7.0 °F 59% 30.22 in 10.0 mi NW 11.5 mph 18.4 mph N/A   Mostly Cloudy
8:53 PM 19.0 °F 7.5 °F 7.0 °F 59% 30.25 in 10.0 mi NW 10.4 mph - N/A   Mostly Cloudy
9:53 PM 18.0 °F 11.1 °F 6.1 °F 60% 30.26 in 10.0 mi Variable 4.6 mph - N/A   Partly Cloudy
10:53 PM 17.1 °F 6.6 °F 3.0 °F 54% 30.27 in 10.0 mi WNW 8.1 mph - N/A   Clear
11:53 PM 17.1 °F 7.6 °F 3.9 °F 56% 30.27 in 10.0 mi West 6.9 mph - N/A   Clear